Forecasts are only available for sites displaying the forecast symbol.

Some water levels are actually in metres AHD (Australian Height Datum), click individual sites for more details.

Scroll for more >

River gauges, storages, and weirs in the Murray–Darling Basin

Typesort descending Location River Water level Flow Volume Release Water temp Salinity Rainfall
River Gauge Swan Hill Murray 1.32 m 26/03/2019 17:45 6807 ML/Day 26/03/2019 17:45 Not measured Not measured 21.7°C 26/03/2019 17:45 83.7 μS/cm 26/03/2019 17:45 Not measured Full data
River Gauge Bandiana Kiewa 0.76 m 26/03/2019 17:45 214 ML/Day 26/03/2019 17:45 Not measured Not measured 19.7°C 26/03/2019 17:45 49.8 μS/cm 26/03/2019 17:45 Not measured Full data
River Gauge Tocumwal Murray 2.03 m 26/03/2019 17:45 8264 ML/Day 26/03/2019 17:45 Not measured Not measured 21.5°C 26/03/2019 17:45 74.2 μS/cm 26/03/2019 17:45 Not measured Full data
River Gauge Edward Escape Wakool 0.37 m 26/03/2019 17:45 167 ML/Day 26/03/2019 17:45 Not measured Not measured 20.0°C 26/03/2019 17:45 68.0 μS/cm 26/03/2019 17:45 Not measured Full data
River Gauge Rochester Campaspe 1.64 m 26/03/2019 17:45 47 ML/Day 26/03/2019 17:45 Not measured Not measured 19.7°C 26/03/2019 17:45 562.4 μS/cm 26/03/2019 17:45 0.0 mm 26/03/2019 9:00 Full data
River Gauge Wakool Junction Murray 2.97 m 26/03/2019 17:45 7595 ML/Day 26/03/2019 17:45 Not measured Not measured 22.2°C 26/03/2019 17:45 76.7 μS/cm 26/03/2019 17:45 Not measured Full data
River Gauge Doctors Point Murray 2.74 m 26/03/2019 18:00 12085 ML/Day 26/03/2019 18:00 Not measured Not measured 22.1°C 26/03/2019 18:00 48.8 μS/cm 26/03/2019 18:00 Not measured Full data
River Gauge Kerang Loddon 0.37 m 26/03/2019 17:45 168 ML/Day 26/03/2019 17:45 Not measured Not measured 20.5°C 26/03/2019 17:45 86.8 μS/cm 26/03/2019 17:45 Not measured Full data
River Gauge Morgan Downstream Murray Not measured Not measured Not measured 4234.9 ML/d26/03/2019 16:45 Not measured 200.4 μS/cm 26/03/2019 15:45 Not measured Full data
River Gauge Frenchman Creek Murray 27.39 m 26/03/2019 7:45 Not measured Not measured 709.0 ML/d26/03/2019 7:45 Not measured Not measured Not measured Full data
River Gauge Murray Bridge Murray 0.52 m 26/03/2019 16:45 Not measured Not measured Not measured 21.8°C 26/03/2019 16:45 270.2 μS/cm 26/03/2019 16:45 Not measured Full data
River Gauge Edward River Offtake Murray 2.39 m 26/03/2019 17:45 1547 ML/Day 26/03/2019 17:45 Not measured Not measured 22.1°C 26/03/2019 17:45 42.4 μS/cm 26/03/2019 17:45 Not measured Full data
River Gauge Barmah Choke Murray 2.38 m 26/03/2019 17:45 6750 ML/Day 26/03/2019 17:45 Not measured Not measured Not measured Not measured Not measured Full data
River Gauge Albury (Union Bridge) Murray 1.71 m 26/03/2019 18:00 Not measured Not measured Not measured 21.7°C 26/03/2019 18:00 53.5 μS/cm 26/03/2019 18:00 Not measured Full data
River Gauge Hinnomunjie Mitta 0.75 m 26/03/2019 17:45 573 ML/Day 26/03/2019 17:45 Not measured Not measured 14.3°C 26/03/2019 17:45 48.4 μS/cm 26/03/2019 17:45 0.0 mm 26/03/2019 9:00 Full data
River Gauge Lake Alexandrina Murray 0.52 m 26/03/2019 5:45 Not measured 1460 GL 26/03/2019 5:45 Not measured Not measured 1005.0 μS/cm 26/03/2019 16:45 Not measured Full data
River Gauge Gulpa Creek Offtake Murray 2.46 m 26/03/2019 17:45 321 ML/Day 26/03/2019 17:45 Not measured Not measured Not measured Not measured Not measured Full data
River Gauge Redcliffs Murray Not measured Not measured Not measured Not measured Not measured 103.9 μS/cm 26/03/2019 17:45 Not measured Full data
River Gauge Corowa Murray 2.3 m 26/03/2019 18:00 9751 ML/Day 26/03/2019 18:00 Not measured Not measured 21.1°C 26/03/2019 18:00 57.5 μS/cm 26/03/2019 18:00 Not measured Full data
River Gauge Rufus River Murray 21.19 m 26/03/2019 7:45 Not measured Not measured 4404.1 ML/d26/03/2019 7:45 Not measured 186.5 μS/cm 26/03/2019 12:15 Not measured Full data
River Gauge Lake Albert Murray 0.55 m 26/03/2019 5:45 Not measured 237 GL 26/03/2019 5:45 Not measured Not measured Not measured Not measured Full data
River Gauge Echuca Wharf Murray 87.1 m 26/03/2019 15:45 Not measured Not measured Not measured Not measured Not measured Not measured Full data
River Gauge Wakool Canal Wakool 0.53 m 26/03/2019 17:45 Not measured Not measured 197.2 ML/d25/03/2019 8:45 Not measured Not measured Not measured Full data
River Gauge Wilcania Darling -0.26 m 26/03/2019 16:45 1 ML/Day 26/03/2019 16:45 Not measured Not measured 20.7°C 26/03/2019 16:45 0.0 μS/cm 26/03/2019 16:45 Not measured Full data
River Gauge Colignan Murray 1.86 m 26/03/2019 17:45 6135 ML/Day 26/03/2019 17:45 Not measured Not measured 22.5°C 26/03/2019 17:45 36.4 μS/cm 26/03/2019 17:45 Not measured Full data
River Gauge Colemans Mitta 1.1 m 26/03/2019 18:30 403 ML/Day 26/03/2019 18:30 Not measured Not measured 13.2°C 26/03/2019 17:45 48.6 μS/cm 26/03/2019 17:45 Not measured Full data
River Gauge Tauwitchere Barrage Murray 0.47 m 26/03/2019 16:45 Not measured Not measured Not measured Not measured Not measured Not measured Full data
River Gauge Biggara Murray 0.48 m 26/03/2019 18:00 577 ML/Day 26/03/2019 18:00 Not measured Not measured 15.7°C 26/03/2019 18:00 40.6 μS/cm 26/03/2019 18:00 4.2 mm 26/03/2019 9:00 Full data
River Gauge Bringenbrong Bridge Murray 1.23 m 26/03/2019 18:00 2190 ML/Day 26/03/2019 18:00 Not measured Not measured Not measured Not measured Not measured Full data
River Gauge Weir 32 Upstream Darling 1.06 m 26/03/2019 17:45 3 ML/Day 26/03/2019 17:45 Not measured Not measured 23.1°C 26/03/2019 17:45 1210.5 μS/cm 26/03/2019 17:45 Not measured Full data
River Gauge Tallandoon Mitta 1.55 m 26/03/2019 17:45 800 ML/Day 26/03/2019 17:45 Not measured Not measured 17.0°C 26/03/2019 17:45 74.3 μS/cm 26/03/2019 17:45 Not measured Full data
River Gauge Mundoo Barrage Murray 0.39 m 26/03/2019 7:45 Not measured Not measured Not measured Not measured Not measured Not measured Full data
River Gauge Flow to South Australia Murray Not measured Not measured Not measured 8081.6 ML/d26/03/2019 7:45 Not measured Not measured Not measured Full data
River Gauge Torrumbarry Headworks Murray 85.41 m 26/03/2019 17:45 Not measured Not measured 2431.1 ML/d26/03/2019 17:45 Not measured Not measured Not measured Full data
River Gauge Pinegrove Murray 1.09 m 26/03/2019 18:00 209 ML/Day 26/03/2019 18:00 Not measured Not measured 17.6°C 26/03/2019 18:00 81.9 μS/cm 26/03/2019 18:00 1.6 mm 26/03/2019 9:00 Full data
River Gauge Burtundy Darling 0.53 m 26/03/2019 17:15 1 ML/Day 26/03/2019 17:15 Not measured Not measured 23.2°C 26/03/2019 17:15 1027.1 μS/cm 26/03/2019 17:15 Not measured Full data
River Gauge Yarrawonga Main Channel Murray 123.5 m 26/03/2019 17:45 Not measured Not measured 647.0 ML/d26/03/2019 17:45 Not measured Not measured Not measured Full data
River Gauge Balranald Murrumbidgee 0.7 m 26/03/2019 17:45 375 ML/Day 26/03/2019 17:45 Not measured Not measured 22.5°C 26/03/2019 17:45 139.5 μS/cm 26/03/2019 17:45 Not measured Full data
River Gauge Stoney Crossing Murray 1.43 m 26/03/2019 17:45 495 ML/Day 26/03/2019 17:45 Not measured 482.7 ML/d26/03/2019 7:45 22.5°C 26/03/2019 17:45 198.4 μS/cm 26/03/2019 17:45 Not measured Full data
River Gauge Jingellic Murray 1.58 m 26/03/2019 17:45 3586 ML/Day 26/03/2019 17:45 Not measured Not measured 19.0°C 26/03/2019 17:45 33.0 μS/cm 26/03/2019 17:45 4.4 mm 26/03/2019 9:00 Full data
River Gauge McCoy Bridge Goulburn 2.25 m 26/03/2019 17:45 2360 ML/Day 26/03/2019 17:45 Not measured Not measured 20.8°C 26/03/2019 17:45 54.3 μS/cm 26/03/2019 17:45 Not measured Full data
River Gauge Mulwala Canal Murray Not measured Not measured Not measured 1422.0 ML/d26/03/2019 7:45 Not measured Not measured Not measured Full data
River Gauge Peechelba Ovens 126.19 m 26/03/2019 17:45 234 ML/Day 26/03/2019 17:45 Not measured Not measured 20.2°C 26/03/2019 17:45 64.6 μS/cm 26/03/2019 17:45 Not measured Full data
Storage Hume Dam Murray 175.04 m 26/03/2019 18:00 Not measured 626 GL 26/03/2019 18:00 10478.0 ML/d26/03/2019 8:00 Not measured Not measured 1.6 mm 26/03/2019 9:00 Full data
Storage Lake Victoria Murray 22.98 m 26/03/2019 16:45 Not measured 245 GL 26/03/2019 16:45 Not measured 20.9°C 26/03/2019 16:45 160.8 μS/cm 26/03/2019 16:45 Not measured Full data
Storage Dartmouth Dam Mitta 461.43 m 26/03/2019 18:30 Not measured 2444 GL 26/03/2019 18:30 Not measured Not measured Not measured Not measured Full data
Storage Menindee Lakes Darling Not measured Not measured 21 GL 26/03/2019 7:45 Not measured Not measured Not measured Not measured Full data
Weirs Lock 6 Upstream Murray 19.27 m 26/03/2019 16:45 Not measured Not measured Not measured 23.3°C 26/03/2019 16:45 134.3 μS/cm 26/03/2019 16:45 Not measured Full data
Weirs Lock 2 Upstream Murray 6.15 m 26/03/2019 16:45 Not measured Not measured Not measured 23.1°C 26/03/2019 16:45 186.1 μS/cm 26/03/2019 16:45 Not measured Full data
Weirs Lock 8 Upstream Murray 23.67 m 26/03/2019 16:45 Not measured Not measured Not measured 23.5°C 26/03/2019 12:45 95.5 μS/cm 26/03/2019 12:45 Not measured Full data
Weirs Lock 1 Upstream Murray 3.24 m 26/03/2019 16:45 Not measured Not measured Not measured 22.6°C 26/03/2019 16:45 207.5 μS/cm 26/03/2019 16:45 Not measured Full data
Weirs Lock 5 Downstream Murray 13.47 m 26/03/2019 16:45 Not measured Not measured Not measured Not measured Not measured Not measured Full data
Weirs Steven's Weir Upstream Wakool 4.42 m 26/03/2019 17:45 Not measured Not measured Not measured Not measured Not measured Not measured Full data
Weirs Lock 5 Upstream Murray 16.34 m 26/03/2019 16:45 Not measured Not measured Not measured 23.3°C 26/03/2019 16:45 144.1 μS/cm 26/03/2019 16:45 Not measured Full data
Weirs Euston Weir Upstream Murray 47.6 m 26/03/2019 8:45 Not measured 37 GL 26/03/2019 7:45 Not measured Not measured Not measured 0.0 mm 21/02/2019 9:00 Full data
Weirs Lock 1 Downstream Murray 0.64 m 26/03/2019 16:45 Not measured Not measured 5729.2 ML/d26/03/2019 7:45 Not measured Not measured Not measured Full data
Weirs Steven's Weir Downstream Wakool 1.33 m 26/03/2019 17:45 1069 ML/Day 26/03/2019 17:45 Not measured Not measured 22.7°C 26/03/2019 17:45 43.8 μS/cm 26/03/2019 17:45 Not measured Full data
Weirs Lock 4 Downstream Murray 10.64 m 26/03/2019 16:45 Not measured Not measured Not measured Not measured Not measured Not measured Full data
Weirs Euston Weir Downstream Murray 43.26 m 26/03/2019 17:45 7056 ML/Day 26/03/2019 17:45 Not measured Not measured 23.3°C 26/03/2019 17:45 90.7 μS/cm 26/03/2019 17:45 Not measured Full data
Weirs Lock 4 Upstream Murray 13.27 m 26/03/2019 16:45 Not measured Not measured Not measured Not measured Not measured Not measured Full data
Weirs Yarrawonga Weir Upstream Murray 124.74 m 26/03/2019 17:45 Not measured Not measured Not measured Not measured Not measured 0.0 mm 26/03/2019 9:00 Full data
Weirs Lock 7 Downstream Murray 20.62 m 26/03/2019 16:45 Not measured Not measured Not measured Not measured Not measured Not measured Full data
Weirs Torrumbarry Weir Downstream Murray 2.3 m 26/03/2019 17:45 6618 ML/Day 26/03/2019 17:45 Not measured Not measured 22.9°C 26/03/2019 17:45 68.7 μS/cm 26/03/2019 17:45 Not measured Full data
Weirs Lock 3 Downstream Murray 6.37 m 26/03/2019 16:45 Not measured Not measured Not measured Not measured Not measured Not measured Full data
Weirs Mildura Weir downstream Murray 30.96 m 26/03/2019 17:45 Not measured Not measured Not measured 24.0°C 26/03/2019 17:45 95.6 μS/cm 26/03/2019 17:45 Not measured Full data
Weirs Yarrawonga Weir Downstream Murray 1.43 m 26/03/2019 18:00 8302 ML/Day 26/03/2019 18:00 Not measured Not measured 21.4°C 26/03/2019 18:00 42.0 μS/cm 26/03/2019 18:00 Not measured Full data
Weirs Lock 7 Upstream Murray 21.23 m 26/03/2019 16:45 Not measured Not measured Not measured 23.1°C 26/03/2019 16:45 100.9 μS/cm 26/03/2019 16:45 Not measured Full data
Weirs Torrumbarry Weir Upstream Murray 86.05 m 26/03/2019 17:30 Not measured 37 GL 26/03/2019 7:45 Not measured 22.9°C 26/03/2019 7:45 68.4 μS/cm 26/03/2019 7:45 0.0 mm 25/03/2019 9:00 Full data
Weirs Wentworth Weir Murray 27.6 m 26/03/2019 17:45 Not measured Not measured 5211.4 ML/d26/03/2019 8:45 Not measured 90.0 μS/cm 26/03/2019 7:45 0.0 mm 31/01/2019 9:00 Full data
Weirs Lock 3 Upstream Murray 9.86 m 26/03/2019 16:45 Not measured Not measured Not measured Not measured Not measured Not measured Full data
Weirs Lock 9 Downstream Murray 23.8 m 26/03/2019 16:45 Not measured Not measured Not measured Not measured Not measured Not measured Full data
Weirs Lock 6 Downstream Murray 16.48 m 26/03/2019 16:45 Not measured Not measured Not measured Not measured Not measured Not measured Full data
Weirs Lock 2 Downstream Murray 3.44 m 26/03/2019 16:45 Not measured Not measured Not measured Not measured Not measured Not measured Full data
Weirs Lock 9 Upstream Murray 27.38 m 26/03/2019 16:45 Not measured Not measured Not measured 23.7°C 26/03/2019 16:45 93.7 μS/cm 26/03/2019 16:45 Not measured Full data